contact:dominique.lefevre@mio.osupytheas.fr, maurice.libes@osupytheas.fr, didier.mallarino@osupytheas.fr
Project:EMSO http://www.emso-fr.org/EMSO-France
Depth: 2436.0 m
Title:EMSO Ligure Ouest : Data MII capteur CSTAR
DateTime,Latitude,Longitude,Instrument_Serial,Reference_Counts,Signal_Counts,Corrected_Signal_raw_counts,Calculated_Beam_c_inverse_meters,Internal_thermistor_counts
DateTime,Latitude,Longitude,Instrument_Serial,Reference_Counts,Signal_Counts,Corrected_Signal_raw_counts,Calculated_Beam_c_inverse_meters,Internal_thermistor_counts
2023-02-01T00:01:45,42.805,6.029,CST-1368DR,4398,4812,11626,01.180,551
2023-02-01T00:04:46,42.805,6.029,CST-1368DR,4398,4812,11626,01.180,551
2023-02-01T00:07:48,42.805,6.029,CST-1368DR,4398,4816,11637,01.176,551
2023-02-01T00:10:50,42.805,6.029,CST-1368DR,4398,4811,11625,01.181,551
2023-02-01T00:13:51,42.805,6.029,CST-1368DR,4398,4813,11628,01.180,551
2023-02-01T00:16:53,42.805,6.029,CST-1368DR,4398,4810,11622,01.182,551
2023-02-01T00:19:54,42.805,6.029,CST-1368DR,4398,4813,11629,01.179,551
2023-02-01T00:22:56,42.805,6.029,CST-1368DR,4398,4812,11626,01.180,551
2023-02-01T00:25:57,42.805,6.029,CST-1368DR,4398,4815,11635,01.177,551
2023-02-01T00:28:59,42.805,6.029,CST-1368DR,4398,4813,11628,01.180,551
2023-02-01T00:32:01,42.805,6.029,CST-1368DR,4398,4812,11626,01.180,551
2023-02-01T00:35:02,42.805,6.029,CST-1368DR,4398,4811,11625,01.181,551
2023-02-01T00:38:04,42.805,6.029,CST-1368DR,4398,4814,11631,01.178,551
2023-02-01T00:41:05,42.805,6.029,CST-1368DR,4398,4813,11630,01.179,551
2023-02-01T00:44:07,42.805,6.029,CST-1368DR,4398,4811,11624,01.181,551
2023-02-01T00:47:09,42.805,6.029,CST-1368DR,4398,4814,11632,01.178,551
2023-02-01T00:50:10,42.805,6.029,CST-1368DR,4398,4811,11623,01.181,551
2023-02-01T00:53:12,42.805,6.029,CST-1368DR,4398,4811,11625,01.181,551
2023-02-01T00:56:13,42.805,6.029,CST-1368DR,4398,4811,11624,01.181,551
2023-02-01T00:59:15,42.805,6.029,CST-1368DR,4398,4813,11628,01.180,551
2023-02-01T01:02:16,42.805,6.029,CST-1368DR,4398,4811,11625,01.181,551
2023-02-01T01:05:18,42.805,6.029,CST-1368DR,4398,4811,11625,01.181,551
2023-02-01T01:08:20,42.805,6.029,CST-1368DR,4398,4813,11630,01.179,551
2023-02-01T01:11:21,42.805,6.029,CST-1368DR,4398,4815,11633,01.178,551
2023-02-01T01:14:23,42.805,6.029,CST-1368DR,4398,4812,11626,01.180,551
2023-02-01T01:17:24,42.805,6.029,CST-1368DR,4398,4814,11632,01.178,551
2023-02-01T01:20:26,42.805,6.029,CST-1368DR,4398,4815,11635,01.177,551
2023-02-01T01:23:28,42.805,6.029,CST-1368DR,4398,4817,11639,01.176,551
2023-02-01T01:26:29,42.805,6.029,CST-1368DR,4398,4813,11630,01.179,551
2023-02-01T01:29:31,42.805,6.029,CST-1368DR,4398,4814,11631,01.178,551
2023-02-01T01:32:32,42.805,6.029,CST-1368DR,4398,4814,11631,01.178,551
2023-02-01T01:35:34,42.805,6.029,CST-1368DR,4398,4815,11634,01.177,551
2023-02-01T01:38:35,42.805,6.029,CST-1368DR,4398,4811,11625,01.181,551
2023-02-01T01:41:37,42.805,6.029,CST-1368DR,4398,4813,11629,01.179,551
2023-02-01T01:44:39,42.805,6.029,CST-1368DR,4398,4814,11632,01.178,551
2023-02-01T01:47:40,42.805,6.029,CST-1368DR,4398,4821,11649,01.172,551
2023-02-01T01:50:42,42.805,6.029,CST-1368DR,4398,4819,11643,01.174,551
2023-02-01T01:53:43,42.805,6.029,CST-1368DR,4398,4813,11630,01.179,551
2023-02-01T01:56:45,42.805,6.029,CST-1368DR,4398,4812,11628,01.180,551
2023-02-01T01:59:47,42.805,6.029,CST-1368DR,4398,4814,11632,01.178,551
2023-02-01T02:02:48,42.805,6.029,CST-1368DR,4398,4818,11640,01.175,551
2023-02-01T02:05:50,42.805,6.029,CST-1368DR,4398,4821,11648,01.173,551
2023-02-01T02:08:51,42.805,6.029,CST-1368DR,4398,4817,11638,01.176,551
2023-02-01T02:11:53,42.805,6.029,CST-1368DR,4398,4823,11652,01.171,551
2023-02-01T02:14:54,42.805,6.029,CST-1368DR,4398,4816,11637,01.176,551
2023-02-01T02:17:56,42.805,6.029,CST-1368DR,4398,4816,11637,01.176,551
2023-02-01T02:20:58,42.805,6.029,CST-1368DR,4398,4815,11635,01.177,551
2023-02-01T02:23:59,42.805,6.029,CST-1368DR,4398,4812,11628,01.180,551
2023-02-01T02:27:01,42.805,6.029,CST-1368DR,4398,4815,11634,01.177,551
2023-02-01T02:30:02,42.805,6.029,CST-1368DR,4398,4815,11633,01.178,551
2023-02-01T02:33:04,42.805,6.029,CST-1368DR,4398,4814,11632,01.178,551
2023-02-01T02:36:06,42.805,6.029,CST-1368DR,4398,4815,11633,01.178,551
2023-02-01T02:39:07,42.805,6.029,CST-1368DR,4398,4815,11633,01.178,551
2023-02-01T02:42:09,42.805,6.029,CST-1368DR,4398,4815,11633,01.178,551
2023-02-01T02:45:10,42.805,6.029,CST-1368DR,4398,4816,11637,01.176,551
2023-02-01T02:48:12,42.805,6.029,CST-1368DR,4398,4815,11634,01.177,551
2023-02-01T02:51:14,42.805,6.029,CST-1368DR,4398,4824,11655,01.170,551
2023-02-01T02:54:15,42.805,6.029,CST-1368DR,4398,4830,11671,01.165,551
2023-02-01T02:57:17,42.805,6.029,CST-1368DR,4398,4824,11657,01.170,551
2023-02-01T03:00:18,42.805,6.029,CST-1368DR,4398,4820,11645,01.174,551
2023-02-01T03:03:20,42.805,6.029,CST-1368DR,4398,4818,11641,01.175,551
2023-02-01T03:06:21,42.805,6.029,CST-1368DR,4398,4819,11644,01.174,551
2023-02-01T03:09:23,42.805,6.029,CST-1368DR,4398,4819,11643,01.174,551
2023-02-01T03:12:25,42.805,6.029,CST-1368DR,4398,4815,11634,01.177,551
2023-02-01T03:15:26,42.805,6.029,CST-1368DR,4398,4816,11637,01.176,551
2023-02-01T03:18:28,42.805,6.029,CST-1368DR,4398,4816,11636,01.177,551
2023-02-01T03:21:29,42.805,6.029,CST-1368DR,4398,4815,11633,01.178,551
2023-02-01T03:24:31,42.805,6.029,CST-1368DR,4398,4816,11636,01.177,551
2023-02-01T03:27:33,42.805,6.029,CST-1368DR,4398,4814,11632,01.178,551
2023-02-01T03:30:34,42.805,6.029,CST-1368DR,4398,4820,11646,01.173,551
2023-02-01T03:33:36,42.805,6.029,CST-1368DR,4398,4816,11636,01.177,551
2023-02-01T03:36:37,42.805,6.029,CST-1368DR,4398,4817,11640,01.175,551
2023-02-01T03:39:39,42.805,6.029,CST-1368DR,4398,4818,11642,01.175,551
2023-02-01T03:42:40,42.805,6.029,CST-1368DR,4398,4817,11639,01.176,551
2023-02-01T03:45:42,42.805,6.029,CST-1368DR,4398,4825,11659,01.169,551
2023-02-01T03:48:44,42.805,6.029,CST-1368DR,4398,4828,11664,01.167,551
2023-02-01T03:51:45,42.805,6.029,CST-1368DR,4398,4827,11664,01.167,551
2023-02-01T03:54:47,42.805,6.029,CST-1368DR,4398,4816,11637,01.176,551
2023-02-01T03:57:48,42.805,6.029,CST-1368DR,4398,4818,11641,01.175,551
2023-02-01T04:00:50,42.805,6.029,CST-1368DR,4398,4819,11644,01.174,551
2023-02-01T04:03:52,42.805,6.029,CST-1368DR,4398,4817,11638,01.176,551
2023-02-01T04:06:53,42.805,6.029,CST-1368DR,4398,4817,11639,01.176,551
2023-02-01T04:09:55,42.805,6.029,CST-1368DR,4398,4817,11639,01.176,551
2023-02-01T04:12:56,42.805,6.029,CST-1368DR,4398,4820,11645,01.174,551
2023-02-01T04:15:58,42.805,6.029,CST-1368DR,4397,4820,11648,01.173,551
2023-02-01T04:18:59,42.805,6.029,CST-1368DR,4397,4821,11650,01.172,551
2023-02-01T04:22:01,42.805,6.029,CST-1368DR,4398,4818,11641,01.175,551
2023-02-01T04:25:03,42.805,6.029,CST-1368DR,4398,4818,11641,01.175,551
2023-02-01T04:28:04,42.805,6.029,CST-1368DR,4398,4819,11645,01.174,551
2023-02-01T04:31:06,42.805,6.029,CST-1368DR,4398,4818,11641,01.175,551
2023-02-01T04:34:07,42.805,6.029,CST-1368DR,4398,4818,11641,01.175,551
2023-02-01T04:37:09,42.805,6.029,CST-1368DR,4398,4818,11640,01.175,551
2023-02-01T04:40:11,42.805,6.029,CST-1368DR,4398,4818,11641,01.175,551
2023-02-01T04:43:12,42.805,6.029,CST-1368DR,4398,4820,11646,01.173,551
2023-02-01T04:46:14,42.805,6.029,CST-1368DR,4398,4816,11637,01.176,551
2023-02-01T04:49:15,42.805,6.029,CST-1368DR,4398,4817,11639,01.176,551
2023-02-01T04:52:17,42.805,6.029,CST-1368DR,4398,4816,11637,01.176,551
2023-02-01T04:55:18,42.805,6.029,CST-1368DR,4398,4816,11637,01.176,551
2023-02-01T04:58:20,42.805,6.029,CST-1368DR,4398,4821,11648,01.173,551
2023-02-01T05:01:22,42.805,6.029,CST-1368DR,4398,4822,11650,01.172,551
2023-02-01T05:04:23,42.805,6.029,CST-1368DR,4398,4819,11645,01.174,551
2023-02-01T05:07:25,42.805,6.029,CST-1368DR,4398,4821,11649,01.172,551
2023-02-01T05:10:26,42.805,6.029,CST-1368DR,4398,4819,11643,01.174,551
2023-02-01T05:13:28,42.805,6.029,CST-1368DR,4398,4816,11637,01.176,551
2023-02-01T05:16:30,42.805,6.029,CST-1368DR,4398,4816,11637,01.176,551
2023-02-01T05:19:31,42.805,6.029,CST-1368DR,4398,4817,11638,01.176,551
2023-02-01T05:22:33,42.805,6.029,CST-1368DR,4398,4817,11639,01.176,551
2023-02-01T05:25:34,42.805,6.029,CST-1368DR,4398,4817,11639,01.176,551
2023-02-01T05:28:36,42.805,6.029,CST-1368DR,4398,4818,11641,01.175,551
2023-02-01T05:31:37,42.805,6.029,CST-1368DR,4397,4821,11650,01.172,551
2023-02-01T05:34:39,42.805,6.029,CST-1368DR,4398,4817,11640,01.175,551
2023-02-01T05:37:41,42.805,6.029,CST-1368DR,4398,4818,11641,01.175,551
2023-02-01T05:40:42,42.805,6.029,CST-1368DR,4398,4819,11643,01.174,551
2023-02-01T05:43:44,42.805,6.029,CST-1368DR,4397,4816,11639,01.176,551
2023-02-01T05:46:45,42.805,6.029,CST-1368DR,4398,4819,11644,01.174,551
2023-02-01T05:49:47,42.805,6.029,CST-1368DR,4398,4834,11680,01.162,551
2023-02-01T05:52:49,42.805,6.029,CST-1368DR,4398,4824,11656,01.170,551
2023-02-01T05:55:50,42.805,6.029,CST-1368DR,4398,4827,11663,01.167,551
2023-02-01T05:58:52,42.805,6.029,CST-1368DR,4398,4825,11657,01.170,551
2023-02-01T06:01:53,42.805,6.029,CST-1368DR,4397,4827,11665,01.167,551
2023-02-01T06:04:55,42.805,6.029,CST-1368DR,4397,4823,11656,01.170,551
2023-02-01T06:07:56,42.805,6.029,CST-1368DR,4397,4822,11653,01.171,551
2023-02-01T06:10:58,42.805,6.029,CST-1368DR,4397,4822,11653,01.171,551
2023-02-01T06:14:00,42.805,6.029,CST-1368DR,4397,4822,11653,01.171,551
2023-02-01T06:17:01,42.805,6.029,CST-1368DR,4397,4823,11656,01.170,551
2023-02-01T06:20:03,42.805,6.029,CST-1368DR,4397,4823,11656,01.170,551
2023-02-01T06:23:04,42.805,6.029,CST-1368DR,4397,4821,11651,01.172,551
2023-02-01T06:26:06,42.805,6.029,CST-1368DR,4397,4819,11645,01.174,551
2023-02-01T06:29:08,42.805,6.029,CST-1368DR,4397,4820,11648,01.173,551
2023-02-01T06:32:09,42.805,6.029,CST-1368DR,4397,4822,11653,01.171,551
2023-02-01T06:35:11,42.805,6.029,CST-1368DR,4398,4822,11651,01.172,551
2023-02-01T06:38:12,42.805,6.029,CST-1368DR,4398,4824,11655,01.170,551
2023-02-01T06:41:14,42.805,6.029,CST-1368DR,4397,4822,11653,01.171,551
2023-02-01T06:44:16,42.805,6.029,CST-1368DR,4397,4822,11653,01.171,551
2023-02-01T06:47:17,42.805,6.029,CST-1368DR,4397,4824,11657,01.170,551
2023-02-01T06:50:19,42.805,6.029,CST-1368DR,4397,4822,11654,01.171,551
2023-02-01T06:53:20,42.805,6.029,CST-1368DR,4397,4822,11654,01.171,551
2023-02-01T06:56:22,42.805,6.029,CST-1368DR,4397,4824,11659,01.169,551
2023-02-01T06:59:23,42.805,6.029,CST-1368DR,4397,4822,11654,01.171,551
2023-02-01T07:02:25,42.805,6.029,CST-1368DR,4398,4821,11649,01.172,551
2023-02-01T07:05:27,42.805,6.029,CST-1368DR,4398,4822,11651,01.172,551
2023-02-01T07:08:28,42.805,6.029,CST-1368DR,4397,4822,11653,01.171,551
2023-02-01T07:11:30,42.805,6.029,CST-1368DR,4398,4823,11652,01.171,551
2023-02-01T07:14:31,42.805,6.029,CST-1368DR,4398,4822,11650,01.172,551
2023-02-01T07:17:33,42.805,6.029,CST-1368DR,4398,4821,11648,01.173,551
2023-02-01T07:20:35,42.805,6.029,CST-1368DR,4397,4819,11647,01.173,551
2023-02-01T07:23:36,42.805,6.029,CST-1368DR,4398,4821,11649,01.172,551
2023-02-01T07:26:38,42.805,6.029,CST-1368DR,4397,4821,11651,01.172,551
2023-02-01T07:29:39,42.805,6.029,CST-1368DR,4398,4823,11653,01.171,551
2023-02-01T07:32:41,42.805,6.029,CST-1368DR,4398,4822,11650,01.172,551
2023-02-01T07:35:42,42.805,6.029,CST-1368DR,4398,4824,11655,01.170,551
2023-02-01T07:38:44,42.805,6.029,CST-1368DR,4398,4830,11671,01.165,551
2023-02-01T07:41:46,42.805,6.029,CST-1368DR,4398,4825,11657,01.170,551
2023-02-01T07:44:47,42.805,6.029,CST-1368DR,4398,4825,11658,01.169,551
2023-02-01T07:47:49,42.805,6.029,CST-1368DR,4398,4824,11656,01.170,551
2023-02-01T07:50:50,42.805,6.029,CST-1368DR,4397,4824,11658,01.169,551
2023-02-01T07:53:52,42.805,6.029,CST-1368DR,4397,4824,11659,01.169,551
2023-02-01T07:56:54,42.805,6.029,CST-1368DR,4397,4810,11624,01.181,551
2023-02-01T07:59:55,42.805,6.029,CST-1368DR,4397,4825,11661,01.168,551
2023-02-01T08:02:57,42.805,6.029,CST-1368DR,4397,4824,11659,01.169,551
2023-02-01T08:05:58,42.805,6.029,CST-1368DR,4397,4825,11661,01.168,551
2023-02-01T08:09:00,42.805,6.029,CST-1368DR,4397,4826,11663,01.167,551
2023-02-01T08:12:01,42.805,6.029,CST-1368DR,4397,4826,11663,01.167,551
2023-02-01T08:15:03,42.805,6.029,CST-1368DR,4397,4827,11665,01.167,551
2023-02-01T08:18:05,42.805,6.029,CST-1368DR,4398,4827,11663,01.167,551
2023-02-01T08:21:06,42.805,6.029,CST-1368DR,4397,4826,11664,01.167,551
2023-02-01T08:24:08,42.805,6.029,CST-1368DR,4397,4826,11663,01.167,551
2023-02-01T08:27:09,42.805,6.029,CST-1368DR,4397,4823,11656,01.170,551
2023-02-01T08:30:11,42.805,6.029,CST-1368DR,4397,4824,11658,01.169,551
2023-02-01T08:33:13,42.805,6.029,CST-1368DR,4397,4824,11659,01.169,551
2023-02-01T08:36:14,42.805,6.029,CST-1368DR,4397,4830,11672,01.164,551
2023-02-01T08:39:16,42.805,6.029,CST-1368DR,4397,4824,11659,01.169,551
2023-02-01T08:42:17,42.805,6.029,CST-1368DR,4397,4791,11579,01.196,551
2023-02-01T08:45:19,42.805,6.029,CST-1368DR,4397,4827,11666,01.166,551
2023-02-01T08:48:20,42.805,6.029,CST-1368DR,4398,4828,11665,01.167,551
2023-02-01T08:51:22,42.805,6.029,CST-1368DR,4397,4828,11669,01.165,551
2023-02-01T08:54:24,42.805,6.029,CST-1368DR,4397,4827,11666,01.166,551
2023-02-01T08:57:25,42.805,6.029,CST-1368DR,4398,4826,11661,01.168,551
2023-02-01T09:00:27,42.805,6.029,CST-1368DR,4397,4828,11669,01.165,551
2023-02-01T09:03:28,42.805,6.029,CST-1368DR,4397,4827,11666,01.166,551
2023-02-01T09:06:30,42.805,6.029,CST-1368DR,4397,4827,11665,01.167,551
2023-02-01T09:09:32,42.805,6.029,CST-1368DR,4397,4827,11666,01.166,551
2023-02-01T09:12:33,42.805,6.029,CST-1368DR,4397,4827,11666,01.166,551
2023-02-01T09:15:35,42.805,6.029,CST-1368DR,4398,4827,11663,01.167,551
2023-02-01T09:18:36,42.805,6.029,CST-1368DR,4397,4827,11666,01.166,551
2023-02-01T09:21:38,42.805,6.029,CST-1368DR,4398,4827,11664,01.167,551
2023-02-01T09:24:39,42.805,6.029,CST-1368DR,4397,4827,11665,01.167,551
2023-02-01T09:27:41,42.805,6.029,CST-1368DR,4398,4827,11664,01.167,551
2023-02-01T09:30:43,42.805,6.029,CST-1368DR,4398,4831,11672,01.164,551
2023-02-01T09:33:44,42.805,6.029,CST-1368DR,4398,4827,11664,01.167,551
2023-02-01T09:36:46,42.805,6.029,CST-1368DR,4397,4828,11668,01.166,551
2023-02-01T09:39:47,42.805,6.029,CST-1368DR,4397,4828,11667,01.166,551
2023-02-01T09:42:49,42.805,6.029,CST-1368DR,4398,4832,11674,01.164,551
2023-02-01T09:45:51,42.805,6.029,CST-1368DR,4398,4828,11665,01.167,551
2023-02-01T09:48:52,42.805,6.029,CST-1368DR,4397,4828,11668,01.166,551
2023-02-01T09:51:54,42.805,6.029,CST-1368DR,4397,4827,11666,01.166,551
2023-02-01T09:54:55,42.805,6.029,CST-1368DR,4397,4826,11664,01.167,551
2023-02-01T09:57:57,42.805,6.029,CST-1368DR,4397,4828,11669,01.165,551
2023-02-01T10:00:58,42.805,6.029,CST-1368DR,4397,4827,11666,01.166,551
2023-02-01T10:04:00,42.805,6.029,CST-1368DR,4397,4828,11668,01.166,551
2023-02-01T10:07:02,42.805,6.029,CST-1368DR,4397,4826,11663,01.167,551
2023-02-01T10:10:03,42.805,6.029,CST-1368DR,4397,4827,11666,01.166,551
2023-02-01T10:13:05,42.805,6.029,CST-1368DR,4397,4828,11667,01.166,551
2023-02-01T10:16:06,42.805,6.029,CST-1368DR,4398,4828,11665,01.167,551
2023-02-01T10:19:08,42.805,6.029,CST-1368DR,4397,4828,11668,01.166,551
2023-02-01T10:22:10,42.805,6.029,CST-1368DR,4397,4827,11665,01.167,551
2023-02-01T10:25:11,42.805,6.029,CST-1368DR,4397,4832,11677,01.163,551
2023-02-01T10:28:13,42.805,6.029,CST-1368DR,4397,4827,11666,01.166,551
2023-02-01T10:31:14,42.805,6.029,CST-1368DR,4397,4828,11668,01.166,551
2023-02-01T10:34:16,42.805,6.029,CST-1368DR,4397,4827,11665,01.167,551
2023-02-01T10:37:17,42.805,6.029,CST-1368DR,4397,4827,11666,01.166,551
2023-02-01T10:40:19,42.805,6.029,CST-1368DR,4398,4827,11663,01.167,551
2023-02-01T10:43:21,42.805,6.029,CST-1368DR,4397,4826,11664,01.167,551
2023-02-01T10:46:22,42.805,6.029,CST-1368DR,4397,4826,11663,01.167,551
2023-02-01T10:49:24,42.805,6.029,CST-1368DR,4397,4829,11670,01.165,551
2023-02-01T10:52:25,42.805,6.029,CST-1368DR,4397,4827,11666,01.166,551
2023-02-01T10:55:27,42.805,6.029,CST-1368DR,4397,4825,11660,01.169,551
2023-02-01T10:58:29,42.805,6.029,CST-1368DR,4397,4826,11664,01.167,551
2023-02-01T11:01:30,42.805,6.029,CST-1368DR,4397,4825,11660,01.169,551
2023-02-01T11:04:32,42.805,6.029,CST-1368DR,4397,4826,11663,01.167,551
2023-02-01T11:07:33,42.805,6.029,CST-1368DR,4397,4827,11665,01.167,551
2023-02-01T11:10:35,42.805,6.029,CST-1368DR,4397,4825,11662,01.168,551
2023-02-01T11:13:36,42.805,6.029,CST-1368DR,4397,4826,11663,01.167,551
2023-02-01T11:16:38,42.805,6.029,CST-1368DR,4397,4827,11666,01.166,551
2023-02-01T11:19:40,42.805,6.029,CST-1368DR,4397,4826,11664,01.167,551
2023-02-01T11:22:41,42.805,6.029,CST-1368DR,4397,4826,11663,01.167,551
2023-02-01T11:25:43,42.805,6.029,CST-1368DR,4397,4826,11664,01.167,551
2023-02-01T11:28:44,42.805,6.029,CST-1368DR,4397,4826,11664,01.167,551
2023-02-01T11:31:46,42.805,6.029,CST-1368DR,4397,4827,11665,01.167,551
2023-02-01T11:34:48,42.805,6.029,CST-1368DR,4397,4826,11664,01.167,551
2023-02-01T11:37:49,42.805,6.029,CST-1368DR,4397,4827,11665,01.167,551
2023-02-01T11:40:51,42.805,6.029,CST-1368DR,4397,4827,11665,01.167,551
2023-02-01T11:43:52,42.805,6.029,CST-1368DR,4397,4827,11666,01.166,551
2023-02-01T11:46:54,42.805,6.029,CST-1368DR,4397,4826,11663,01.167,551
2023-02-01T11:49:55,42.805,6.029,CST-1368DR,4397,4827,11665,01.167,551
2023-02-01T11:52:57,42.805,6.029,CST-1368DR,4397,4830,11672,01.164,551
2023-02-01T11:55:59,42.805,6.029,CST-1368DR,4397,4828,11668,01.166,551
2023-02-01T11:59:00,42.805,6.029,CST-1368DR,4397,4829,11671,01.165,551
2023-02-01T12:02:02,42.805,6.029,CST-1368DR,4397,4827,11666,01.166,551
2023-02-01T12:05:03,42.805,6.029,CST-1368DR,4397,4827,11666,01.166,551
2023-02-01T12:08:05,42.805,6.029,CST-1368DR,4397,4827,11665,01.167,551
2023-02-01T12:11:07,42.805,6.029,CST-1368DR,4397,4827,11665,01.167,551
2023-02-01T12:14:08,42.805,6.029,CST-1368DR,4397,4827,11665,01.167,551
2023-02-01T12:17:10,42.805,6.029,CST-1368DR,4397,4826,11664,01.167,551
2023-02-01T12:20:11,42.805,6.029,CST-1368DR,4397,4826,11663,01.167,551
2023-02-01T12:23:13,42.805,6.029,CST-1368DR,4397,4826,11663,01.167,551
2023-02-01T12:26:14,42.805,6.029,CST-1368DR,4397,4826,11664,01.167,551
2023-02-01T12:29:16,42.805,6.029,CST-1368DR,4397,4826,11663,01.167,551
2023-02-01T12:32:18,42.805,6.029,CST-1368DR,4397,4826,11663,01.167,551
2023-02-01T12:35:19,42.805,6.029,CST-1368DR,4397,4824,11659,01.169,551
2023-02-01T12:38:21,42.805,6.029,CST-1368DR,4397,4827,11665,01.167,551
2023-02-01T12:41:22,42.805,6.029,CST-1368DR,4397,4826,11663,01.167,551
2023-02-01T12:44:24,42.805,6.029,CST-1368DR,4397,4826,11663,01.167,551
2023-02-01T12:47:26,42.805,6.029,CST-1368DR,4397,4827,11665,01.167,551
2023-02-01T12:50:27,42.805,6.029,CST-1368DR,4397,4826,11664,01.167,551
2023-02-01T12:53:29,42.805,6.029,CST-1368DR,4397,4828,11667,01.166,551
2023-02-01T12:56:30,42.805,6.029,CST-1368DR,4397,4827,11666,01.166,551
2023-02-01T12:59:32,42.805,6.029,CST-1368DR,4397,4825,11662,01.168,551
2023-02-01T13:02:34,42.805,6.029,CST-1368DR,4397,4827,11666,01.166,551
2023-02-01T13:05:35,42.805,6.029,CST-1368DR,4397,4827,11665,01.167,551
2023-02-01T13:08:37,42.805,6.029,CST-1368DR,4397,4826,11663,01.167,551
2023-02-01T13:11:38,42.805,6.029,CST-1368DR,4397,4827,11666,01.166,551
2023-02-01T13:14:40,42.805,6.029,CST-1368DR,4397,4825,11661,01.168,551
2023-02-01T13:17:41,42.805,6.029,CST-1368DR,4397,4827,11666,01.166,551
2023-02-01T13:20:43,42.805,6.029,CST-1368DR,4397,4827,11665,01.167,551
2023-02-01T13:23:45,42.805,6.029,CST-1368DR,4397,4828,11667,01.166,551
2023-02-01T13:26:46,42.805,6.029,CST-1368DR,4397,4827,11665,01.167,551
2023-02-01T13:29:48,42.805,6.029,CST-1368DR,4397,4827,11665,01.167,551
2023-02-01T13:32:49,42.805,6.029,CST-1368DR,4397,4828,11667,01.166,551
2023-02-01T13:35:51,42.805,6.029,CST-1368DR,4397,4829,11671,01.165,551
2023-02-01T13:38:53,42.805,6.029,CST-1368DR,4397,4830,11672,01.164,551
2023-02-01T13:41:54,42.805,6.029,CST-1368DR,4397,4828,11668,01.166,551
2023-02-01T13:44:56,42.805,6.029,CST-1368DR,4397,4826,11664,01.167,551
2023-02-01T13:47:57,42.805,6.029,CST-1368DR,4397,4827,11665,01.167,551
2023-02-01T13:50:59,42.805,6.029,CST-1368DR,4397,4829,11670,01.165,551
2023-02-01T13:54:00,42.805,6.029,CST-1368DR,4397,4828,11668,01.166,551
2023-02-01T13:57:02,42.805,6.029,CST-1368DR,4397,4825,11662,01.168,551
2023-02-01T14:00:04,42.805,6.029,CST-1368DR,4397,4826,11663,01.167,551
2023-02-01T14:03:05,42.805,6.029,CST-1368DR,4397,4827,11665,01.167,551
2023-02-01T14:06:07,42.805,6.029,CST-1368DR,4397,4828,11668,01.166,551
2023-02-01T14:09:08,42.805,6.029,CST-1368DR,4397,4826,11663,01.167,551
2023-02-01T14:12:10,42.805,6.029,CST-1368DR,4397,4827,11666,01.166,551
2023-02-01T14:15:12,42.805,6.029,CST-1368DR,4397,4828,11667,01.166,551
2023-02-01T14:18:13,42.805,6.029,CST-1368DR,4397,4827,11665,01.167,551
2023-02-01T14:21:15,42.805,6.029,CST-1368DR,4397,4826,11663,01.167,551
2023-02-01T14:24:16,42.805,6.029,CST-1368DR,4397,4828,11668,01.166,551
2023-02-01T14:27:18,42.805,6.029,CST-1368DR,4397,4827,11666,01.166,551
2023-02-01T14:30:19,42.805,6.029,CST-1368DR,4397,4826,11663,01.167,551
2023-02-01T14:33:21,42.805,6.029,CST-1368DR,4397,4828,11668,01.166,551
2023-02-01T14:36:23,42.805,6.029,CST-1368DR,4397,4828,11667,01.166,551
2023-02-01T14:39:24,42.805,6.029,CST-1368DR,4397,4830,11672,01.164,551
2023-02-01T14:42:26,42.805,6.029,CST-1368DR,4397,4828,11668,01.166,551
2023-02-01T14:45:27,42.805,6.029,CST-1368DR,4397,4829,11670,01.165,551
2023-02-01T14:48:29,42.805,6.029,CST-1368DR,4397,4829,11669,01.165,551
2023-02-01T14:51:30,42.805,6.029,CST-1368DR,4397,4828,11667,01.166,551
2023-02-01T14:54:32,42.805,6.029,CST-1368DR,4397,4828,11668,01.166,551
2023-02-01T14:57:34,42.805,6.029,CST-1368DR,4397,4828,11668,01.166,551
2023-02-01T15:00:35,42.805,6.029,CST-1368DR,4397,4828,11667,01.166,551
2023-02-01T15:03:37,42.805,6.029,CST-1368DR,4397,4829,11670,01.165,551
2023-02-01T15:06:38,42.805,6.029,CST-1368DR,4397,4828,11668,01.166,551
2023-02-01T15:09:40,42.805,6.029,CST-1368DR,4397,4828,11667,01.166,551
2023-02-01T15:12:42,42.805,6.029,CST-1368DR,4397,4828,11668,01.166,551
2023-02-01T15:15:43,42.805,6.029,CST-1368DR,4397,4829,11669,01.165,551
2023-02-01T15:18:45,42.805,6.029,CST-1368DR,4397,4828,11668,01.166,551
2023-02-01T15:21:46,42.805,6.029,CST-1368DR,4397,4830,11672,01.164,551
2023-02-01T15:24:48,42.805,6.029,CST-1368DR,4397,4828,11668,01.166,551
2023-02-01T15:27:49,42.805,6.029,CST-1368DR,4397,4828,11669,01.165,551
2023-02-01T15:30:51,42.805,6.029,CST-1368DR,4397,4826,11664,01.167,551
2023-02-01T15:33:53,42.805,6.029,CST-1368DR,4397,4828,11669,01.165,551
2023-02-01T15:36:54,42.805,6.029,CST-1368DR,4397,4834,11682,01.161,551
2023-02-01T15:39:56,42.805,6.029,CST-1368DR,4397,4828,11668,01.166,551
2023-02-01T15:42:57,42.805,6.029,CST-1368DR,4397,4827,11666,01.166,551
2023-02-01T15:45:59,42.805,6.029,CST-1368DR,4397,4828,11667,01.166,551
2023-02-01T15:49:01,42.805,6.029,CST-1368DR,4397,4827,11665,01.167,551
2023-02-01T15:52:02,42.805,6.029,CST-1368DR,4397,4828,11668,01.166,551
2023-02-01T15:55:04,42.805,6.029,CST-1368DR,4397,4829,11669,01.165,551
2023-02-01T15:58:05,42.805,6.029,CST-1368DR,4397,4827,11666,01.166,551
2023-02-01T16:01:07,42.805,6.029,CST-1368DR,4397,4826,11664,01.167,551
2023-02-01T16:04:09,42.805,6.029,CST-1368DR,4397,4828,11668,01.166,551
2023-02-01T16:07:10,42.805,6.029,CST-1368DR,4397,4828,11668,01.166,551
2023-02-01T16:10:12,42.805,6.029,CST-1368DR,4397,4824,11659,01.169,551
2023-02-01T16:13:13,42.805,6.029,CST-1368DR,4397,4828,11667,01.166,551
2023-02-01T16:16:15,42.805,6.029,CST-1368DR,4397,4824,11659,01.169,551
2023-02-01T16:19:16,42.805,6.029,CST-1368DR,4397,4822,11653,01.171,551
2023-02-01T16:22:18,42.805,6.029,CST-1368DR,4397,4827,11665,01.167,551
2023-02-01T16:25:20,42.805,6.029,CST-1368DR,4397,4825,11660,01.169,551
2023-02-01T16:28:21,42.805,6.029,CST-1368DR,4397,4827,11666,01.166,551
2023-02-01T16:31:23,42.805,6.029,CST-1368DR,4396,4827,11668,01.166,551
2023-02-01T16:34:24,42.805,6.029,CST-1368DR,4396,4827,11669,01.165,551
2023-02-01T16:37:26,42.805,6.029,CST-1368DR,4397,4828,11667,01.166,551